Location: Appeville
(49.3218°N, 1.3427°W)
Time: 12:52:42
(UTC+00:00)

Cosmos 1331 Rocket - Pass Details

Date: 08 December 2019
Orbit: 749 x 779 km, 74.0° (Epoch: 27 January)

Event Time Altitude Azimuth Distance (km) Brightness Sun altitude
Rises 06:51:39 0° 197° (SSW) 3,182 7.3 -8.7°
Reaches altitude 10° 06:53:59 10° 196° (SSW) 2,263 6.6 -8.3°
Maximum altitude 06:59:06 78° 111° (ESE) 774 4.2 -7.6°
Drops below altitude 10° 07:04:18 10° 26° (NNE) 2,291 6.5 -6.8°
Sets 07:06:41 0° 25° (NNE) 3,224 7.2 -6.5°
